Simultaneous Nadir Overpasses (SNOs) Predictions

Prediction of SNOs between FY3D and LANDSAT-8 Satellite Orbit:

Table of predicted SNOs for the next 14.0 days since TLE Epoch: 10/24/2020
Index Date (FY3D) Time (FY3D) Lat,Lon (FY3D) SZA (FY3D ) Date (LANDSAT-8) Time (LANDSAT-8) Lat,Lon (LANDSAT-8) SZA (LANDSAT-8 ) Distance(km) Time Diff (sec)
1 10/25/2020 12:19:26 -70.65, 172.32 97.10 10/25/2020 12:19:57 -70.67, 172.34 97.08 1.93 31
2 10/25/2020 13:10:10 70.56, -20.23 82.84 10/25/2020 13:09:24 70.57, -20.16 82.84 2.71 46
3 10/28/2020 04:35:48 -70.69, -71.82 96.15 10/28/2020 04:36:25 -70.66, -71.79 96.18 3.36 37
4 10/28/2020 05:26:31 70.56, 95.70 83.73 10/28/2020 05:25:52 70.56, 95.71 83.74 0.49 39
5 10/30/2020 20:52:10 -70.67, 44.12 95.29 10/30/2020 20:52:53 -70.70, 44.15 95.26 3.17 43
6 10/30/2020 21:42:53 70.55,-148.37 84.61 10/30/2020 21:42:21 70.55,-148.43 84.60 2.56 32
7 11/02/2020 13:08:32 -70.66, 160.06 94.44 11/02/2020 13:09:22 -70.68, 160.01 94.42 2.83 50
8 11/02/2020 13:59:16 70.60, -32.53 85.51 11/02/2020 13:58:49 70.58, -32.50 85.49 2.27 27
9 11/05/2020 05:24:54 -70.71, -84.09 93.58 11/05/2020 05:25:49 -70.72, -84.06 93.57 1.86 55
10 11/05/2020 06:15:37 70.60, 83.40 86.33 11/05/2020 06:15:16 70.61, 83.43 86.34 1.97 21
